Карточка аэропорта USPP

Внимание!
Информация на этой странице в стадии наполнения.
Если вы не увидели какой-то информации, или заметили неточность - пожалуйста сообщите нам!
Спасибо!
Команда RU-STAFF
Название аэропортаБольшое Савино
Название аэропорта (англ.)Bolshoe Savino
Превышение404 ft. (123.1 m.)
Координаты57°55.866', 56°1.6019999999999'
Высота перехода3700ft
Эшелон переходаQNH>1013:FL50; 1013>QNH>977:FL60; 977>QNH:FL70;
Коды ответчика5610-5617
Зона ОрВДЕкатеринбург РПИ (USSV)
Данные METARUSPP 191057Z 35003MPS 290V030 9999 VCTS SCT046CB 27/16 Q1006 R21/090060 TEMPO VRB19MPS 1100 TSRAGR SQ BKN011CB RMK QFE744
Проноз погоды (TAF)USPP 190754Z 1909/2009 35003G16MPS 9999 BKN016CB TEMPO 1909/1918 31003G20MPS -TSRAGR BECMG 1918/1919 24003G13MPS BKN016
NOTAMshow/hide NOTAM
AWOS   TABLE

Информация о ВПП

ВПП Длина ВПП (м.) Покрытие Курс ВПП Частота ILS
213204Железобетон211109.9
033204Железобетон31 

Диспетчерские позиции

Позывной Наименование органа УВД Частота
USPP_TWRПермь-Старт124.000
USPP_APPПермь-Подход127.100
USPP_R_APPПермь-Круг121.700



Спутниковое изображение